Flag for U.S.A. Weather past 2 weeks in Newark, New Jersey, U.S.A.

75 °F

Scattered clouds.

Feels Like: 78 °F
Forecast: 56 / 72 °F
Wind: 12 mph from Northwest

Location: Newark International Airport

Current Time: Oct 7, 2015 at 5:10:35 PM

Latest Report: Oct 7, 2015 at 3:51 PM

Visibility: 10 mi

Pressure: 29.96 "Hg

Humidity: 43%

Dew point: 51 °F

Location of NewarkLocation

Historic Weather in Newark — Graph


Newark temperature yesterday

Maximum temperature yesterday: 75 °F (at 3:51 PM)
Minimum temperature yesterday: 51 °F (at 2:51 AM)
Average temperature yesterday: 63 °F

Past Weeks' High & Low Weather Summary

High81 °F (Sep 24, 4:51 PM)97% (Sep 30, 2:51 AM)30.47 "Hg (Sep 30, 2:51 AM)
Low48 °F (Oct 2, 7:51 PM)25% (Sep 23, 3:51 PM)29.65 "Hg (Sep 30, 5:51 AM)
Average64 °F70%30.18 "Hg
* Reported Sep 22 3:51 PM — Oct 7 3:51 PM, Newark, Weather by CustomWeather, © 2015

Note: Actual official high and low records may vary slightly from our data, if they occured in-between our weather recording intervals... More about our weather records


Newark weather history for previous 24 hours

Time TempWeatherWind HumidityBarometerVisibility
3:51 PM
Wed, Oct 7
75 °FScattered clouds.12 mph43%29.96 "Hg10 mi
2:51 PM74 °FPassing clouds.10 mph43%29.96 "Hg10 mi
1:51 PM73 °FPassing clouds.8 mph46%29.98 "Hg10 mi
12:51 PM69 °FScattered clouds.3 mph53%30.00 "Hg10 mi
11:51 AM67 °FPartly sunny.No wind57%30.01 "Hg10 mi
10:51 AM66 °FPartly sunny.No wind65%30.01 "Hg10 mi
9:51 AM61 °FMostly cloudy.5 mph72%30.02 "Hg10 mi
8:51 AM60 °FPartly sunny.7 mph75%30.01 "Hg10 mi
7:51 AM58 °FPartly cloudy.5 mph81%29.99 "Hg10 mi
6:51 AM56 °FPartly cloudy.5 mph84%29.98 "Hg10 mi
5:51 AM56 °FPassing clouds.5 mph84%29.98 "Hg10 mi
4:51 AM57 °FPassing clouds.6 mph81%29.96 "Hg10 mi
3:51 AM59 °FClear.7 mph78%29.96 "Hg10 mi
2:51 AM58 °FPassing clouds.6 mph78%29.96 "Hg10 mi
1:51 AM60 °FPassing clouds.9 mph72%29.96 "Hg10 mi
12:51 AM61 °FPassing clouds.8 mph70%29.96 "Hg10 mi
11:51 PM
Tue, Oct 6
63 °FClear.9 mph65%29.97 "Hg10 mi
10:51 PM64 °FPassing clouds.12 mph63%29.97 "Hg10 mi
9:51 PM66 °FPassing clouds.9 mph61%29.96 "Hg10 mi
8:51 PM67 °FPassing clouds.9 mph61%29.96 "Hg10 mi
7:51 PM67 °FPassing clouds.3 mph59%29.95 "Hg10 mi
6:51 PM70 °FPartly sunny.7 mph53%29.95 "Hg10 mi
5:51 PM72 °FScattered clouds.9 mph48%29.94 "Hg10 mi
Weather by CustomWeather, © 2015

See weather overviewHow to use our weather pages